Tracking 25707 objects as of 29-Jun-2022
HD Live streaming from Space Station
objects crossing your sky now

STARLINK-3895

Track STARLINK-3895 now!
10-day predictions
STARLINK-3895 is classified as:


NORAD ID: 52583
Int'l Code: 2022-051AZ
Perigee: 356.9 km
Apogee: 359.5 km
Inclination: 53.2 °
Period: 91.6 minutes
Semi major axis: 6729 km
RCS: Unknown
Launch date: May 13, 2022
Source: United States (US)
Launch site: AIR FORCE WESTERN TEST RANGE (AFWTR)
aabbcc
Your satellite tracking list
Your tracking list is empty




NASA's NSSDC Master Catalog

Two Line Element Set (TLE):
1 52583U 22051AZ  22180.58334491 -.01053969  00000-0 -85047-2 0  9994
2 52583  53.2174  62.1441 0001932  25.2329 233.3424 15.72753579  7888
Source of the keplerian elements: AFSPC